Location: Palm Bay
(27.9400°N, 80.7200°W)
Time: 14:16:02
(UTC-04:00)

Daily predictions for brighter satellites

Satellite Brightness Start Highest point End
(mag) Time Altitude Azimuth Time Altitude Azimuth Time Altitude Azimuth
GOES 2 Rocket 4.3 20:35:17 10° W 20:40:35 52° SSW 20:47:37 10° ESE
Cosmos 2237 Rocket 4.1 20:42:55 10° NNE 20:45:34 13° ENE 20:48:11 10° E
Cosmos 1470 3.5 20:41:59 10° NNE 20:45:35 33° E 20:49:07 10° SSE
Nadezhda 3 Rocket 4.2 20:40:31 10° S 20:46:51 86° W 20:53:07 10° N
CZ-2D R/B 3.6 20:43:18 10° SSE 20:46:58 48° ENE 20:50:40 10° N
ASTEX 1 3.4 20:44:18 10° S 20:49:10 80° E 20:54:04 10° N
ATLAS 2A CENTAUR R/B 4.1 20:46:37 10° W 20:53:30 85° S 21:24:06 10° E
Cosmos 2227 Rocket 2.4 20:48:15 10° S 20:53:41 51° ESE 20:59:08 10° NNE
Cosmos 2098 4.4 20:51:35 10° N 20:54:48 53° E 20:57:42 10° SSE
Resurs 1-3 3.7 20:51:01 10° SSE 20:55:18 59° ENE 20:59:37 10° N
Cosmos 1953 2.5 20:52:00 10° N 20:56:02 80° W 21:00:01 10° S
Cosmos 1140 Rocket 4.4 20:52:56 10° SSE 20:57:15 27° E 21:01:33 10° NE
Orbus 7S? 3.4 20:52:43 10° NW 20:58:09 81° WSW 21:01:06 10° SSE
Cosmos 1733 3.4 20:54:48 10° N 20:58:36 53° E 21:02:23 10° SSE
COSMOS 2428 2.8 20:53:06 10° NNW 20:58:48 64° ENE 21:04:26 10° SSE
Cosmos 1934 Rocket 4.5 20:56:29 10° NNE 21:02:12 40° E 21:07:50 10° SSE
Cosmos 1992 Rocket 4.0 20:58:18 10° N 21:03:28 66° ENE 21:08:37 10° SSE
Cosmos 407 Rocket 3.5 20:59:47 10° SSW 21:04:54 89° ESE 21:10:02 10° NNE
Cosmos 2360 Rocket 3.4 20:59:50 10° NW 21:05:07 42° WSW 21:10:21 10° S
H-2A R/B 4.0 13:01:02 10° WSW 21:06:09 50° SW 21:11:33 11° SE
Orbus 7S 3.7 21:05:05 10° W 21:07:32 51° S 21:11:15 13° ESE
Cosmos 1707 3.5 21:13:03 10° SSW 21:16:52 56° W 21:20:42 10° N
Cosmos 1954 Rocket 4.0 21:12:14 10° S 21:17:20 58° ESE 21:22:26 10° NNE
Cosmos 1727 Rocket 4.5 21:11:46 10° SSE 21:17:34 41° E 21:23:26 10° NNE
OAO 3 Rocket 3.5 21:13:58 10° WNW 21:18:35 61° NNE 21:22:31 14° E
Cosmos 1535 Rocket 4.5 21:13:30 10° N 21:19:46 75° E 21:26:05 10° S
Cosmos 2333 Rocket 2.6 21:19:22 10° N 21:24:49 47° ENE 21:28:44 18° SE
Milstar 3 Cent rocket 3.4 21:22:17 10° W 21:28:54 89° N 21:43:08 10° E
Cosmos 1842 Rocket 4.3 21:26:02 10° NNE 21:30:02 35° E 21:32:09 22° SE
Cosmos 2219 Rocket 2.2 21:25:17 10° NNW 21:30:56 70° ENE 21:35:10 18° SSE
Cosmos 1939 Rocket 2.9 21:29:49 19° SSE 21:32:30 60° ENE 21:36:27 10° N
Cosmos 2084 4.2 21:32:01 18° SSE 21:34:05 27° ESE 21:37:29 10° NE
Helios 1A 3.0 21:32:34 19° SSE 21:35:22 64° ENE 21:39:29 10° N
Cosmos 614 Rocket 4.0 21:30:52 10° S 21:35:58 57° ESE 21:41:04 10° NNE
OAO 1 Rocket 4.4 21:30:55 10° WSW 21:36:16 81° SSE 21:41:38 10° ENE
Cosmos 2098 Rocket 4.4 21:34:58 10° N 21:42:31 72° E 21:48:48 15° SSE
Cosmos 1741 Rocket 4.4 21:39:05 15° SSE 21:43:11 43° E 21:48:10 10° NNE
ERS-1 Rocket 3.8 21:41:39 24° ESE 21:43:46 34° ENE 21:48:16 10° N
USA 234 3.5 21:38:14 10° NE 21:44:45 75° NW 21:51:16 10° SW
Cosmos 2082 4.2 21:40:24 10° SSW 21:45:55 61° WNW 21:51:29 10° N
Sakura Rocket 4.0 21:40:00 10° WSW 21:48:05 66° SSE 21:52:33 18° E
USA 186 3.9 21:47:12 10° SW 21:48:55 16° W 21:50:36 10° NW
Helios 1B rocket 3.4 21:45:32 10° N 21:49:31 48° WNW 21:53:29 10° SSW
SAR-Lupe-4 3.5 21:48:28 38° SSE 21:49:41 67° ENE 21:53:14 10° N
SPOT 5 4.3 21:51:11 19° E 21:51:59 20° ENE 21:55:28 10° NNE
Cosmos 1340 Rocket 2.7 21:49:56 24° S 21:52:11 72° E 21:56:12 10° NNE
Tiangong 1 4.0 21:52:46 10° WNW 21:54:20 14° NNW 21:55:54 10° N
Cosmos 2297 Rocket 3.0 21:49:05 10° SW 21:54:34 54° WNW 22:00:07 10° N
Palapa B4 Rocket 4.4 21:54:24 10° WSW 21:57:57 26° S 21:58:18 25° S
Okean 3 Rocket 3.7 21:57:05 36° SSE 21:58:36 54° E 22:03:00 10° NNE
SEDSat Delta rocket 2.9 21:54:57 10° WNW 21:59:15 74° NNE 22:00:39 39° E
Lacrosse 4 Rocket 4.1 21:57:45 10° WSW 22:01:00 22° WNW 22:04:21 10° N
DELTA 2 R/B (1) 3.5 21:58:56 10° WNW 22:04:34 85° SSW 22:06:45 39° SE
Cosmos 1184 Rocket 3.5 22:03:57 26° SSW 22:05:32 53° W 22:08:49 10° N
Cosmos 1076 Rocket 3.8 22:05:22 43° ESE 22:05:36 44° E 22:09:45 10° NNE
ATLAS 2AS CENTAUR R/B 4.1 21:58:59 10° NW 22:05:43 34° WSW 22:11:45 11° S
SAR-Lupe-1 4.1 22:08:09 55° S 22:08:50 75° WSW 22:12:25 10° NNW
NOSS 3-4 (A) 4.3 22:02:10 10° NNW 22:09:07 49° ENE 22:12:21 31° ESE
NOSS 3-4 (C) 4.3 22:02:17 10° NNW 22:09:12 48° ENE 22:12:26 31° ESE
Atlas Centaur 2 1.4 22:08:35 10° W 22:12:05 56° N 22:12:48 46° NE
CZ-3B R/B 4.4 22:11:23 10° WSW 22:13:38 40° NW 22:18:58 10° NNE
Resurs 01 Rocket 4.5 22:14:32 10° WSW 22:15:54 11° W 22:17:16 10° WNW
CZ-4B DEB 4.2 22:18:20 28° WSW 22:18:35 29° W 22:21:14 10° NW
Cosmos 1980 3.8 22:13:22 10° NNW 22:19:01 73° WSW 22:21:17 37° S
MetOp-B 4.2 22:17:49 47° SE 22:19:09 61° ENE 22:24:26 10° N
Aureole 2 Rocket 3.2 22:15:22 10° NNW 22:19:17 52° WSW 22:19:57 45° SW
Cosmos 2221 2.6 22:17:42 10° N 22:22:02 59° E 22:22:02 59° E
ATLAS 5 CENTAUR R/B 2.5 22:18:42 10° SW 22:23:07 51° WNW 22:27:49 10° NNE
Skynet4D Del rocket 3.9 22:17:28 10° W 22:23:39 80° S 22:26:19 40° ESE
Cosmos 1356 Rocket 3.3 22:23:49 71° E 22:23:49 71° E 22:27:56 10° NNE
Cosmos 1766 Rocket 4.2 22:25:02 41° ENE 22:25:02 41° ENE 22:28:20 10° NNE
Cosmos 1242 Rocket 4.3 22:21:43 10° NNE 22:23:41 24° NE 22:23:41 24° NE
Palapa 6 Rocket 4.0 22:20:51 10° WSW 22:23:53 32° SW 22:23:53 32° SW
Cosmos 2237 Rocket 2.5 22:24:25 10° NNW 22:29:58 62° WSW 22:31:49 40° SSW
Cosmos 2061 Rocket 4.2 22:24:04 10° N 22:30:15 51° E 22:31:19 46° ESE
Cosmos 1867 3.8 22:30:01 10° SSW 22:35:24 69° WNW 22:40:50 10° NNE
Cosmos 2100 Rocket 4.0 22:29:20 10° N 22:35:38 70° E 22:37:02 54° SE
Cosmos 1570 Rocket 4.4 22:30:49 10° N 22:35:54 45° ENE 22:35:54 45° ENE
Cosmos 1000 Rocket 4.4 22:34:38 39° S 22:37:14 89° WNW 22:43:33 10° N
Cosmos 2123 Rocket 4.2 22:40:15 49° E 22:40:22 49° E 22:46:17 10° NNE
Cosmos 1459 Rocket 3.9 22:35:08 10° N 22:41:25 73° E 22:42:28 60° SE
H-2A R/B 4.4 22:43:40 13° NE 22:43:40 13° NE 22:44:38 10° NE
Cosmos 1908 4.2 22:41:07 10° N 22:43:52 44° N 22:43:52 44° N
Cosmos 1674 3.7 22:46:51 42° WNW 22:46:51 42° WNW 22:50:11 10° N
Terra 3.5 22:48:44 22° NE 22:48:44 22° NE 22:51:24 10° NNE
SL-16 R/B 2.0 22:46:18 10° NNW 22:51:59 77° ENE 22:52:09 77° E
Cosmos 2173 Rocket 3.8 22:45:55 10° N 22:52:06 88° E 22:53:02 67° S
ARGOS 3.2 22:57:54 64° SW 22:58:21 67° WSW 23:03:44 10° NNW
H-2A R/B 2.1 23:03:07 76° NNE 23:03:07 76° NNE 23:08:05 10° N
Cosmos 1802 Rocket 3.8 22:58:48 10° N 23:04:57 84° W 23:05:24 77° SSW
Cosmos 2333 Rocket 4.4 23:05:17 10° WNW 23:08:34 16° W 23:10:46 13° SW
EO 1 Delta rocket 4.3 23:12:23 62° NNW 23:12:23 62° NNW 23:16:17 10° NNW
Cosmos 1725 Rocket 4.2 23:05:34 10° N 23:11:11 58° ENE 23:11:11 58° ENE
SL-08 R/B 4.4 23:09:58 10° N 23:16:11 81° ENE 23:16:11 81° ENE
Cosmos 1818 3.9 23:13:45 10° NNW 23:18:13 60° N 23:18:13 60° N
SPOT 5 4.4 23:30:25 28° W 23:30:25 28° W 23:33:57 10° NW
Lacrosse 5 3.9 23:39:35 10° N 23:42:31 21° NNE 23:42:31 21° NNE
Cosmos 2263 Rocket 3.3 23:55:55 37° N 23:55:55 37° N 23:59:14 10° NNE
